Location: Alexandria
(38.8050°N, 77.0470°W)
Time: 21:00:23
(UTC-05:00)

N. Korean satellite - Pass Details

Date: 14 November 2017
Orbit: 460 x 514 km, 97.2° (Epoch: 24 November)

Event Time Altitude Azimuth Distance (km) Brightness Sun altitude
Rises 18:45:38 0° 191° (SSW) 2,472 10.4 -21.6°
Reaches altitude 10° 18:47:53 10° 204° (SSW) 1,606 9.6 -22.0°
Maximum altitude 18:50:50 27° 264° (W) 937 8.7 -22.6°
Drops below altitude 10° 18:53:51 10° 323° (NW) 1,632 9.6 -23.2°
Sets 18:56:09 0° 336° (NNW) 2,522 10.4 -23.6°
